Change the Weather History Date:

Friday, January 18, 2013

  Actual Average Record
Temperature  
Mean Temperature 28 °F -  
Max Temperature 44 °F 30 °F 44 °F (2013)
Min Temperature 11 °F 15 °F -2 °F (2005)
Degree Days  
Heating Degree Days 37 42  
Month to date heating degree days 680 747  
Since 1 July heating degree days 3059 3296  
Cooling Degree Days 0 0  
Month to date cooling degree days 0 0  
Year to date cooling degree days 0 0  
Moisture  
Dew Point 21 °F    
Average Humidity 72    
Maximum Humidity 92    
Minimum Humidity 51    
Precipitation  
Precipitation 0.00 in 0.04 in 0.00 in (2015)
Month to date precipitation 0.85 0.77  
Year to date precipitation 0.85 0.77  
Sea Level Pressure  
Sea Level Pressure 30.16 in    
Wind  
Wind Speed 15 mph (SSW)    
Max Wind Speed 32 mph    
Max Gust Speed 40 mph    
Visibility 10 miles    
Events      
T = Trace of Precipitation, MM = Missing Value Source: NWS Daily Summary

Daily Weather History Graph

Daily Weather History Graph

Search for Another Location

Airport or City:

Trip Planner

Search our weather history database for the weather conditions in past years. The results will help you decide how hot, cold, wet, or windy it might be!

Date:

Astronomy

Jan. 18, 2013 Rise Set
Actual Time 7:16 AM CST 4:47 PM CST
Civil Twilight 6:45 AM CST 5:18 PM CST
Nautical Twilight 6:11 AM CST 5:53 PM CST
Astronomical Twilight 5:37 AM CST 6:26 PM CST
Moon 10:44 AM CST (1/18) No Moon Set
Length of Visible Light 10h 33m
Length of Day
9h 31m
Waxing Crescent, 47% of the Moon is Illuminated
Jan 18
Waxing Crescent
Jan 18
First Quarter
Jan 26
Full
Feb 3
Last Quarter
Feb 10
New

Hourly Weather History & Observations

Time (CST) Temp. Windchill Dew Point Humidity Pressure Visibility Wind Dir Wind Speed Gust Speed Precip Events Conditions
12:52 AM 12.9 °F - 9.0 °F 84% 30.46 in 10.0 mi Calm Calm - N/A   Clear
1:52 AM 10.9 °F - 8.1 °F 88% 30.45 in 10.0 mi Calm Calm - N/A   Clear
2:52 AM 18.0 °F - 12.0 °F 78% 30.47 in 10.0 mi Calm Calm - N/A   Clear
3:52 AM 19.0 °F - 12.9 °F 77% 30.45 in 10.0 mi Calm Calm - N/A   Overcast
4:52 AM 19.9 °F - 12.9 °F 74% 30.43 in 10.0 mi Calm Calm - N/A   Overcast
5:52 AM 19.9 °F 14.9 °F 12.9 °F 74% 30.40 in 10.0 mi ESE 3.5 mph - N/A   Overcast
6:52 AM 21.9 °F 14.5 °F 14.0 °F 72% 30.39 in 10.0 mi SSE 5.8 mph - N/A   Overcast
7:52 AM 21.9 °F 12.5 °F 16.0 °F 78% 30.37 in 10.0 mi South 8.1 mph - N/A   Overcast
8:52 AM 25.0 °F 13.6 °F 17.1 °F 72% 30.35 in 10.0 mi South 12.7 mph - N/A   Overcast
9:52 AM 28.0 °F 17.5 °F 18.0 °F 66% 30.31 in 10.0 mi South 12.7 mph 20.7 mph N/A   Overcast
10:52 AM 33.1 °F 20.6 °F 19.9 °F 59% 30.25 in 10.0 mi SSW 23.0 mph 33.4 mph N/A   Clear
11:52 AM 37.0 °F 25.9 °F 21.9 °F 54% 30.16 in 10.0 mi South 23.0 mph 35.7 mph N/A   Clear
12:52 PM 41.0 °F 30.7 °F 25.0 °F 53% 30.09 in 10.0 mi South 25.3 mph 35.7 mph N/A   Clear
1:52 PM 42.1 °F 33.3 °F 26.1 °F 53% 30.04 in 10.0 mi SSW 19.6 mph 34.5 mph 0.01 in   Clear
2:52 PM 43.0 °F 34.2 °F 27.0 °F 53% 29.98 in 10.0 mi South 20.7 mph 38.0 mph N/A   Clear
3:52 PM 43.0 °F 33.8 °F 27.0 °F 53% 29.94 in 10.0 mi South 23.0 mph 32.2 mph N/A   Clear
4:52 PM 41.0 °F 30.9 °F 28.0 °F 60% 29.95 in 10.0 mi SSW 24.2 mph 36.8 mph N/A   Clear
5:52 PM 39.9 °F 29.0 °F 28.0 °F 63% 29.94 in 10.0 mi SSW 26.5 mph 39.1 mph N/A   Clear
6:52 PM 39.9 °F 29.0 °F 28.9 °F 65% 29.93 in 10.0 mi SSW 26.5 mph 34.5 mph N/A   Clear
7:52 PM 39.9 °F 29.0 °F 28.9 °F 65% 29.93 in 10.0 mi SSW 26.5 mph 38.0 mph N/A   Clear
8:52 PM 41.0 °F 30.5 °F 28.0 °F 60% 29.92 in 10.0 mi SSW 26.5 mph 35.7 mph N/A   Clear
9:52 PM 42.1 °F 32.6 °F 27.0 °F 55% 29.89 in 10.0 mi SSW 23.0 mph 39.1 mph N/A   Clear
10:52 PM 42.1 °F 32.6 °F 28.0 °F 58% 29.88 in 10.0 mi SW 23.0 mph 31.1 mph N/A   Clear
11:52 PM 42.1 °F 34.2 °F 28.0 °F 58% 29.88 in 10.0 mi SW 16.1 mph 29.9 mph N/A   Clear